Hourly Weather Jizzakh

Today, 17 April, Saturday

Time Temperature Precipitation Wind Pressure Humidity
00:00 +17°C° 0 mm 2 mps 729 mmHg 33%
01:00 +17°C° 0 mm 2 mps 728 mmHg 33%
02:00 +17°C° 0 mm 2 mps 728 mmHg 32%
03:00 +16°C° 0 mm 2 mps 728 mmHg 32%
04:00 +16°C° 0 mm 1 mps 729 mmHg 32%
05:00 +16°C° 0 mm 1 mps 729 mmHg 33%
06:00 +18°C° 0 mm 1 mps 729 mmHg 32%
07:00 +19°C° 0 mm 1 mps 730 mmHg 31%
08:00 +21°C° 0 mm 1 mps 730 mmHg 31%
09:00 +22°C° 0 mm 1 mps 730 mmHg 28%
10:00 +23°C° 0 mm 2 mps 730 mmHg 26%
11:00 +24°C° 0 mm 2 mps 730 mmHg 24%
12:00 +25°C° 0 mm 2 mps 730 mmHg 23%
13:00 +25°C° 0 mm 2 mps 730 mmHg 23%
14:00 +26°C° 0 mm 3 mps 730 mmHg 22%
15:00 +26°C° 0 mm 3 mps 729 mmHg 23%
16:00 +25°C° 0 mm 3 mps 729 mmHg 24%
17:00 +25°C° 0 mm 3 mps 729 mmHg 26%
18:00 +24°C° 0 mm 2 mps 729 mmHg 28%
19:00 +21°C° 0 mm 2 mps 729 mmHg 31%
20:00 +21°C° 0 mm 1 mps 730 mmHg 34%
21:00 +21°C° 0 mm 1 mps 730 mmHg 34%
22:00 +19°C° 0 mm 2 mps 730 mmHg 35%
23:00 +19°C° 0 mm 2 mps 730 mmHg 35%

Tomorrow, 18 April, Sunday

Time Temperature Precipitation Wind Pressure Humidity
00:00 +19°C° 0 mm 2 mps 730 mmHg 36%
01:00 +19°C° 0 mm 2 mps 730 mmHg 37%
02:00 +18°C° 0 mm 2 mps 730 mmHg 38%
03:00 +18°C° 0 mm 2 mps 730 mmHg 38%
04:00 +18°C° 0 mm 2 mps 730 mmHg 38%
05:00 +18°C° 0 mm 2 mps 730 mmHg 38%
06:00 +18°C° 0 mm 2 mps 731 mmHg 38%
07:00 +19°C° 0 mm 2 mps 731 mmHg 39%
08:00 +20°C° 0 mm 2 mps 732 mmHg 39%
09:00 +21°C° 0 mm 2 mps 732 mmHg 34%
10:00 +24°C° 0 mm 2 mps 732 mmHg 29%
11:00 +25°C° 0 mm 2 mps 732 mmHg 23%
12:00 +26°C° 0 mm 2 mps 732 mmHg 22%
13:00 +26°C° 0 mm 2 mps 731 mmHg 21%
14:00 +27°C° 0 mm 3 mps 731 mmHg 19%
15:00 +27°C° 0 mm 2 mps 731 mmHg 19%
16:00 +27°C° 0 mm 2 mps 731 mmHg 19%
17:00 +26°C° 0 mm 2 mps 731 mmHg 19%
18:00 +25°C° 0 mm 2 mps 731 mmHg 23%
19:00 +23°C° 0 mm 2 mps 731 mmHg 26%
20:00 +20°C° 0 mm 2 mps 731 mmHg 30%
21:00 +20°C° 0 mm 2 mps 730 mmHg 31%
22:00 +19°C° 0 mm 2 mps 730 mmHg 33%
23:00 +19°C° 0 mm 2 mps 730 mmHg 35%

Day after tomorrow, 19 April, Monday

Time Temperature Precipitation Wind Pressure Humidity
00:00 +18°C° 0 mm 2 mps 729 mmHg 35%
01:00 +18°C° 0 mm 2 mps 729 mmHg 35%
02:00 +17°C° 0 mm 2 mps 729 mmHg 35%
03:00 +18°C° 0 mm 1 mps 729 mmHg 35%
04:00 +18°C° 0 mm 1 mps 729 mmHg 36%
05:00 +18°C° 0 mm 1 mps 729 mmHg 36%
06:00 +19°C° 0 mm 1 mps 729 mmHg 35%
07:00 +20°C° 0 mm 1 mps 729 mmHg 34%
08:00 +19°C° 0 mm 0 mps 729 mmHg 33%
09:00 +23°C° 0 mm 1 mps 729 mmHg 31%
10:00 +24°C° 0 mm 1 mps 729 mmHg 29%
11:00 +25°C° 0 mm 2 mps 729 mmHg 26%
12:00 +26°C° 0 mm 2 mps 728 mmHg 25%
13:00 +26°C° 0 mm 2 mps 728 mmHg 24%
14:00 +27°C° 0 mm 3 mps 728 mmHg 23%
15:00 +26°C° 0 mm 2 mps 727 mmHg 24%
16:00 +26°C° 0 mm 2 mps 727 mmHg 25%
17:00 +26°C° 0 mm 2 mps 727 mmHg 26%
18:00 +24°C° 0 mm 2 mps 727 mmHg 28%
19:00 +23°C° 0 mm 2 mps 726 mmHg 31%
20:00 +20°C° 0 mm 2 mps 726 mmHg 34%
21:00 +19°C° 0 mm 2 mps 726 mmHg 35%
22:00 +19°C° 0 mm 2 mps 726 mmHg 36%
23:00 +19°C° 0 mm 1 mps 726 mmHg 37%

20 April, Tuesday

Time Temperature Precipitation Wind Pressure Humidity
00:00 +19°C° 0 mm 1 mps 725 mmHg 37%
01:00 +18°C° 0 mm 1 mps 725 mmHg 38%
02:00 +18°C° 0 mm 1 mps 725 mmHg 39%
03:00 +18°C° 0 mm 1 mps 725 mmHg 39%
04:00 +16°C° 0 mm 1 mps 725 mmHg 40%
05:00 +16°C° 0 mm 1 mps 725 mmHg 40%
06:00 +16°C° 0 mm 0 mps 725 mmHg 39%
07:00 +18°C° 0 mm 0 mps 725 mmHg 37%
08:00 +19°C° 0 mm 0 mps 726 mmHg 35%
09:00 +22°C° 0 mm 1 mps 726 mmHg 33%
10:00 +24°C° 0 mm 1 mps 725 mmHg 30%
11:00 +25°C° 0 mm 2 mps 725 mmHg 27%
12:00 +25°C° 0 mm 3 mps 726 mmHg 29%
13:00 +25°C° 0 mm 5 mps 726 mmHg 30%
14:00 +24°C° 0 mm 7 mps 726 mmHg 31%
15:00 +23°C° 0 mm 6 mps 726 mmHg 33%
16:00 +23°C° 0 mm 4 mps 726 mmHg 36%
17:00 +22°C° 0 mm 3 mps 726 mmHg 38%
18:00 +21°C° 0.1 mm 3 mps 726 mmHg 44%
19:00 +19°C° 0.1 mm 3 mps 727 mmHg 51%
20:00 +17°C° 0.1 mm 2 mps 727 mmHg 58%
21:00 +17°C° 0 mm 2 mps 727 mmHg 59%
22:00 +17°C° 0 mm 2 mps 727 mmHg 61%
23:00 +18°C° 0 mm 1 mps 727 mmHg 62%

21 April, Wednesday

Time Temperature Precipitation Wind Pressure Humidity
00:00 +16°C° 0.1 mm 1 mps 727 mmHg 66%
01:00 +15°C° 0.1 mm 1 mps 726 mmHg 71%
02:00 +15°C° 0.1 mm 1 mps 726 mmHg 75%
03:00 +15°C° 0.2 mm 1 mps 726 mmHg 77%
04:00 +14°C° 0.2 mm 1 mps 726 mmHg 80%
05:00 +14°C° 0.2 mm 1 mps 727 mmHg 82%
06:00 +14°C° 0.5 mm 2 mps 727 mmHg 82%
07:00 +14°C° 0.5 mm 2 mps 728 mmHg 81%
08:00 +13°C° 0.5 mm 3 mps 728 mmHg 80%
09:00 +14°C° 0.3 mm 3 mps 729 mmHg 76%
10:00 +16°C° 0.3 mm 3 mps 729 mmHg 71%
11:00 +16°C° 0.3 mm 2 mps 729 mmHg 66%
12:00 +17°C° 0.1 mm 3 mps 729 mmHg 62%
13:00 +18°C° 0.1 mm 3 mps 729 mmHg 57%
14:00 +19°C° 0.1 mm 3 mps 729 mmHg 53%
15:00 +19°C° 0.1 mm 3 mps 729 mmHg 52%
16:00 +19°C° 0.1 mm 3 mps 729 mmHg 51%
17:00 +19°C° 0.1 mm 3 mps 729 mmHg 49%
18:00 +18°C° 0 mm 3 mps 730 mmHg 51%
19:00 +17°C° 0 mm 4 mps 730 mmHg 53%
20:00 +14°C° 0 mm 4 mps 730 mmHg 55%
21:00 +13°C° 0 mm 4 mps 731 mmHg 59%
22:00 +12°C° 0 mm 3 mps 731 mmHg 62%
23:00 +10°C° 0 mm 3 mps 732 mmHg 65%

22 April, Thursday

Time Temperature Precipitation Wind Pressure Humidity
00:00 +10°C° 0 mm 3 mps 732 mmHg 66%
01:00 +9°C° 0 mm 2 mps 732 mmHg 66%
02:00 +8°C° 0 mm 2 mps 732 mmHg 67%
03:00 +8°C° 0 mm 2 mps 732 mmHg 67%
04:00 +7°C° 0 mm 2 mps 732 mmHg 68%
05:00 +7°C° 0 mm 2 mps 732 mmHg 68%
06:00 +7°C° 0 mm 2 mps 732 mmHg 64%
07:00 +8°C° 0 mm 3 mps 733 mmHg 60%
08:00 +9°C° 0 mm 3 mps 733 mmHg 56%
09:00 +10°C° 0 mm 3 mps 733 mmHg 52%
10:00 +12°C° 0 mm 3 mps 733 mmHg 48%
11:00 +13°C° 0 mm 3 mps 733 mmHg 44%
12:00 +14°C° 0 mm 3 mps 733 mmHg 41%
13:00 +16°C° 0 mm 3 mps 733 mmHg 38%
14:00 +18°C° 0 mm 3 mps 733 mmHg 35%
15:00 +18°C° 0 mm 3 mps 733 mmHg 35%
16:00 +18°C° 0 mm 3 mps 733 mmHg 34%
17:00 +18°C° 0 mm 3 mps 733 mmHg 34%
18:00 +17°C° 0 mm 2 mps 733 mmHg 37%
19:00 +15°C° 0 mm 2 mps 733 mmHg 41%
20:00 +14°C° 0 mm 2 mps 733 mmHg 45%
21:00 +13°C° 0 mm 2 mps 733 mmHg 48%
22:00 +13°C° 0 mm 2 mps 733 mmHg 52%
23:00 +12°C° 0 mm 2 mps 733 mmHg 55%
Show more